Location: Appeville
(49.3218°N, 1.3427°W)
Time: 01:06:31
(UTC+00:00)

NOSS 2-1 (E) - Pass Details

Date: 08 December 2019
Orbit: 456 x 1748 km, 63.3° (Epoch: 16 January)

Event Time Altitude Azimuth Distance (km) Brightness Sun altitude
Exits shadow 04:55:08 57° 343° (NNW) 1,042 4.4 -26.9°
Maximum altitude 04:56:19 74° 46° (NE) 970 4.5 -26.7°
Drops below altitude 10° 05:03:40 10° 132° (SE) 3,142 7.8 -25.5°
Sets 05:06:55 0° 134° (SE) 4,314 8.7 -25.0°
